Location: Peach Mountain Observatory
(42.3967°N, 83.9367°W)
Time: 15:51:08
(UTC-05:00)

S-56A Canister/Altair - Pass Details

Date: 26 January 2020
Orbit: 633 x 2499 km, 38.9° (Epoch: 22 February)

Event Time Altitude Azimuth Distance (km) Brightness Sun altitude
Rises 23:03:25 0° 268° (W) 3,522 - -57.5°
Reaches altitude 10° 23:06:18 10° 265° (W) 2,375 - -57.9°
Maximum altitude 23:11:25 55° 188° (S) 808 - -58.6°
Drops below altitude 10° 23:15:45 10° 110° (ESE) 2,008 - -59.2°
Sets 23:18:00 0° 106° (ESE) 2,922 - -59.5°
